Regional Weather Roundup
Issued by NWS

Home | Current Version | Previous Version | Graphics & Text | Print | Product List | Glossary On
Versions: 1 2 3 4 5 6 7 8 9 10 11 12 13 14 15 16 17 18 19 20 21 22 23 24 25 26 27 28 29 30 31 32 33 34 35 36 37 38 39 40 41 42 43 44 45 46 47 48 49 50
000
ASUS43 KLSX 251407
RWRMO

WEATHER SUMMARY FOR MISSOURI
NATIONAL WEATHER SERVICE SPRINGFIELD MO
900 AM CDT MON MAY 25 2015

NOTE: "FAIR" INDICATES FEW OR NO CLOUDS BELOW 12,000 FEET WITH NO
       SIGNIFICANT WEATHER AND/OR OBSTRUCTIONS TO VISIBILITY.
       CURRENT SKY AND/OR WEATHER CONDITIONS ARE NOT AVAILABLE FOR
       CHILLICOTHE AND FARMINGTON.

MOZ001>031-035>038-043-044-053-054-251500-
...NORTHERN AND WESTERN MISSOURI...

CITY           SKY/WX    TMP DP  RH WIND       PRES   REMARKS
KANSAS CTY INT CLOUDY    63  61  93 SE10      29.89F
KANSAS C DTWN  RAIN      64  59  83 SE10      29.88F
LEE`S SUMMIT   MOSUNNY   64  60  87 SW5       29.96S
ST JOSEPH      CLOUDY    64  60  87 S14G24    29.84F
CHILLICOTHE      N/A     66  62  87 SW10      29.96R
KIRKSVILLE     CLOUDY    65  63  93 SW7       29.95R

$$
MOZ066>068-077>081-088>096-101>105-251500-
...SOUTHWEST MISSOURI...

CITY           SKY/WX    TMP DP  RH WIND       PRES   REMARKS
SPRINGFIELD    PTSUNNY   68  64  87 S13       29.98S
JOPLIN         CLOUDY    70  66  87 S10       29.95S

$$
MOZ032>034-039>042-045>050-055>058-069>072-251500-
...CENTRAL MISSOURI...

CITY           SKY/WX    TMP DP  RH WIND       PRES   REMARKS
COLUMBIA       CLOUDY    65  61  87 SW12      30.00R
JEFFERSON CITY PTSUNNY   67  60  78 SW9       30.00R
ROLLA          MOSUNNY   68  62  81 SW14      30.00R
SEDALIA        CLOUDY    66  61  84 S7        29.99R
WHITEMAN AFB   CLOUDY    65  61  88 S9        29.97R
WARRENSBURG    CLOUDY    63  59  88 SW6       30.00R FOG
OSAGE BEACH    CLOUDY    66  61  82 SW7       30.01R

$$
MOZ051-052-059>065-251500-
...EAST CENTRAL MISSOURI...

CITY           SKY/WX    TMP DP  RH WIND       PRES   REMARKS
ST LOUIS INTL  NOT AVBL
SPIRIT OF STL  PTSUNNY   71  62  73 W14       30.00R
ST CHARLES     CLOUDY    70  61  73 SW15      30.00R

$$
MOZ072>076-082>087-097>100-106>115-251500-
...SOUTH CENTRAL AND SOUTHEAST MISSOURI...

CITY           SKY/WX    TMP DP  RH WIND       PRES   REMARKS
CAPE GIRARDEAU CLOUDY    70  66  87 S12       30.06R
FARMINGTON     CLOUDY    70  64  83 SW9       30.07R
POPLAR BLUFF   CLOUDY    71  67  87 S12       30.04R
WEST PLAINS    CLOUDY    71  66  84 SW9       30.03S

$$



USA.gov is the U.S. government's official web portal to all federal, state and local government web resources and services.